STARLINK-1345 (45585 NORAD) Tracking and Keplerian Element Data

This shows tracking and keplerian element data for the satellite.

Feedback or suggestion? Click here.




ElementValue
Catalog45585
NameSTARLINK-1345
Epoch Orbit1267
Epoch Day190.16667824
Epoch Year2020
RAAN24.2265
Inclination52.997
Eccentricity0.0001233
Argument of Perigee38.8813
Mean Anonmoly174.3122
Mean Motion15.62725752
Decay Rate-0.00024927
L11 45585U 20025BG 20190.16667824 -.00024927 00000-0 -26751-3 0 9998
L22 45585 52.9970 24.2265 0001233 38.8813 174.3122 15.62725752 12670

Live tracking and technical data element details for STARLINK-1345 (NORAD 45585). STARLINK-1345 can be tracked NOW for your location showing map with azimuth and elevation plus other details from your city location.

Track the satellite on the map from your city or location and see movement details for azimuth, elevation, latitude, longitude, range, height, and movement on the map or in text.







IsCatalogInMostPopularTable: catalog: 45585, numindb: 27
Update: records affected: 1



GetName: 45585 STARLINK-1345

Hit Count: updated at: Fri, 10 Jul 2020 02:26:47 GMT